Location: Columbia
(38.9520°N, 92.3340°W)
Time: 10:59:40
(UTC-05:00)

Iridium 52 - Visible Passes

Search period start: 20 September 2014 00:00
Search period end: 30 September 2014 00:00
Orbit: 776 x 779 km, 86.4° (Epoch: 19 September)

Date Brightness Start Highest point End Pass type
(mag) Time Alt. Az. Time Alt. Az. Time Alt. Az.
20 Sep 6.9 04:07:11 44° E 04:07:26 44° E 04:12:22 10° NNE visible
20 Sep 7.3 05:47:41 19° W 05:48:21 20° WNW 05:52:05 10° NNW visible
21 Sep 8.0 03:34:21 24° ENE 03:34:21 24° ENE 03:38:13 10° NNE visible
21 Sep 6.6 05:14:52 35° WNW 05:14:52 35° WNW 05:19:22 10° NNW visible
22 Sep 8.8 03:01:29 13° ENE 03:01:29 13° ENE 03:03:08 10° NE visible
22 Sep 6.3 04:41:59 54° NNW 04:41:59 54° NNW 04:46:10 10° N visible
23 Sep 7.0 04:09:05 42° NNE 04:09:05 42° NNE 04:12:37 10° N visible
23 Sep 7.8 05:49:35 13° WNW 05:49:35 13° WNW 05:51:09 10° NW visible
24 Sep 8.0 03:36:08 25° NE 03:36:08 25° NE 03:38:44 10° NNE visible
24 Sep 7.5 05:16:38 21° NW 05:16:38 21° NW 05:19:03 10° NNW visible
25 Sep 8.7 03:03:08 14° NE 03:03:08 14° NE 03:04:21 10° NE visible
25 Sep 7.4 04:43:38 26° NNW 04:43:38 26° NNW 04:46:06 10° N visible
26 Sep 7.7 04:10:37 25° N 04:10:37 25° N 04:12:45 10° N visible
27 Sep 8.3 03:37:35 19° NNE 03:37:35 19° NNE 03:39:05 10° NNE visible
27 Sep 8.2 05:18:04 11° NW 05:18:04 11° NW 05:18:27 10° NW visible
28 Sep 8.9 03:04:30 12° NNE 03:04:30 12° NNE 03:05:02 10° NNE visible
28 Sep 8.1 04:45:00 14° NNW 04:45:00 14° NNW 04:45:54 10° NNW visible
29 Sep 8.3 04:11:55 15° N 04:11:55 15° N 04:12:46 10° N visible
